G7GFU-13 Weather Reports


time (UTC)temp
F
wind
direction
speed
knots
gust
knots
rain 1hr
in
rain 24hr
in
rain mn
in
humidity
%
barometer
mb
20260502221117 53 359 0.9 2.6 0.06 0.14 0.14 93 1011.5
20260502220003 54 3 0.9 2.6 0.06 0.13 0.13 93 1011.6
20260502215403 54 6 0.9 2.6 0.06 0.12 0.12 93 1011.7
20260502214503 54 322 0.9 2.6 0.05 0.11 0.11 92 1011.8
20260502213603 54 153 0.0 1.7 0.04 0.09 0.09 92 1011.8
20260502212703 54 0 0.0 0.9 0.05 0.09 0.09 92 1011.9
20260502211803 54 0 0.0 0.9 0.05 0.08 0.08 91 1012.0
20260502210903 54 0 0.0 0.0 0.06 0.08 0.08 91 1012.0
20260502210003 54 0 0.0 0.0 0.06 0.07 0.07 90 1012.1
20260502205618 54 0 0.0 0.0 0.05 0.06 0.06 89 1012.1
20260502204717 54 0 0.0 0.0 0.05 0.06 0.06 88 1012.2
20260502203603 55 0 0.0 0.0 0.05 0.05 0.05 87 1012.3
20260502202703 55 153 0.9 1.7 0.04 0.04 0.04 85 1012.3
20260502201803 56 151 0.9 1.7 0.03 0.03 0.03 85 1012.4
20260502200903 56 0 0.0 0.9 0.02 0.02 0.02 83 1012.3
20260502200003 56 1 0.0 1.7 0.01 0.01 0.01 82 1012.3
20260502195403 56 1 0.0 0.9 0.01 0.01 0.01 81 1012.3
20260502194503 57 1 0.9 1.7 0.01 0.01 0.01 80 1012.2
20260502193603 57 350 0.9 2.6 0.00 0.00 0.00 78 1012.2
20260502192917 57 360 0.9 3.5 0.00 0.00 0.00 77 1012.2
20260502191803 58 346 1.7 5.2 0.00 0.00 0.00 75 1012.2
20260502190903 58 330 0.9 3.5 0.00 0.00 0.00 73 1012.1
20260502190003 59 0 0.0 0.9 0.00 0.00 0.00 67 1012.1
20260502185403 59 0 0.0 0.0 0.00 0.00 0.00 66 1012.1
20260502184503 60 0 0.0 0.0 0.00 0.00 0.00 64 1012.1
20260502183818 60 149 0.0 0.9 0.00 0.00 0.00 62 1012.2
20260502182703 60 159 0.0 1.7 0.00 0.00 0.00 62 1012.3
20260502181803 60 159 0.0 3.5 0.00 0.00 0.00 62 1012.3
20260502180903 61 171 0.9 2.6 0.00 0.00 0.00 60 1012.4
20260502163603 62 117 0.9 2.6 0.00 0.03 0.00 56 1012.7
20260502162703 63 148 1.7 3.5 0.00 0.03 0.00 55 1012.8
20260502161803 63 67 0.9 2.6 0.00 0.03 0.00 56 1013.0
20260502161117 64 139 1.7 2.6 0.00 0.03 0.00 56 1013.0
20260502160218 64 143 1.7 4.3 0.00 0.03 0.00 54 1013.1
20260502151803 65 94 0.9 2.6 0.00 0.03 0.00 52 1013.5
20260502150903 66 122 0.9 1.7 0.00 0.03 0.00 51 1013.5
20260502123603 63 148 1.7 4.3 0.00 0.03 0.00 61 1015.4
20260502122917 64 104 1.7 4.3 0.00 0.03 0.00 59 1015.5
20260502121803 63 153 0.9 4.3 0.00 0.03 0.00 61 1015.7
20260502120903 63 139 1.7 4.3 0.00 0.03 0.00 57 1015.8
20260502120219 62 35 1.7 5.2 0.00 0.03 0.00 60 1015.9
20260502115403 63 179 2.6 3.5 0.00 0.03 0.00 61 1016.0
20260502114503 64 150 0.9 4.3 0.00 0.03 0.00 62 1016.1
20260502113817 63 125 0.9 4.3 0.00 0.03 0.00 64 1016.1
20260502112916 63 172 1.7 1.7 0.00 0.03 0.00 60 1016.2
20260502111803 63 155 0.9 2.6 0.00 0.03 0.00 62 1016.2
20260502110903 62 161 0.9 3.5 0.00 0.03 0.00 64 1016.3
20260502110003 61 121 0.0 3.5 0.00 0.03 0.00 65 1016.3
20260502105403 60 160 0.9 2.6 0.00 0.03 0.00 66 1016.3
20260502104503 60 155 1.7 3.5 0.00 0.03 0.00 66 1016.4
20260502103603 60 90 0.9 3.5 0.00 0.03 0.00 67 1016.4
20260502102703 60 63 0.9 3.5 0.00 0.03 0.00 67 1016.5
20260502101803 61 160 0.9 3.5 0.00 0.03 0.00 67 1016.7
20260502101117 61 153 0.9 3.5 0.00 0.03 0.00 68 1016.8
20260502090903 58 109 0.9 2.6 0.00 0.03 0.00 76 1016.9
20260502071117 53 100 0.9 1.7 0.00 0.03 0.00 86 1017.2
20260502070003 53 341 0.0 0.9 0.00 0.03 0.00 88 1017.1
20260502065403 52 341 0.0 1.7 0.00 0.03 0.00 89 1017.1
20260502064718 51 341 0.0 0.9 0.00 0.03 0.00 92 1017.1
20260502063604 50 341 0.0 0.9 0.00 0.03 0.00 92 1017.1
20260502062703 50 0 0.0 1.7 0.00 0.03 0.00 93 1017.1
20260502061803 49 0 0.0 0.9 0.00 0.03 0.00 94 1017.1
20260502060903 50 0 0.0 0.0 0.00 0.03 0.00 95 1017.1
20260502060003 47 0 0.0 0.9 0.00 0.03 0.00 97 1017.0
20260502055618 46 0 0.0 0.0 0.00 0.03 0.00 97 1017.0
20260502054503 46 0 0.0 0.0 0.00 0.03 0.00 97 1017.0
20260502053817 46 0 0.0 0.0 0.00 0.03 0.00 97 1017.0
20260502052703 46 0 0.0 0.0 0.00 0.03 0.00 97 1017.0
20260502051803 45 0 0.0 0.0 0.00 0.03 0.00 97 1017.0
20260502050904 44 0 0.0 0.0 0.00 0.03 0.00 97 1017.0
20260502050218 44 0 0.0 0.0 0.00 0.03 0.00 97 1017.0
20260502045403 45 0 0.0 0.0 0.00 0.03 0.00 97 1017.0
20260502044503 45 0 0.0 0.0 0.00 0.03 0.00 97 1017.0
20260502043816 45 0 0.0 0.0 0.00 0.03 0.00 97 1017.0
20260502042703 45 0 0.0 0.0 0.00 0.03 0.00 97 1017.0
20260502041803 44 0 0.0 0.0 0.00 0.03 0.00 97 1017.0
20260502040903 44 0 0.0 0.0 0.00 0.03 0.00 97 1017.1
20260502040218 44 0 0.0 0.0 0.00 0.03 0.00 97 1017.2
20260502035403 45 0 0.0 0.0 0.00 0.03 0.00 97 1017.2
20260502034503 45 0 0.0 0.0 0.00 0.03 0.00 97 1017.2
20260502033603 45 0 0.0 0.0 0.00 0.03 0.00 97 1017.3
20260502032703 46 0 0.0 0.0 0.00 0.03 0.00 97 1017.2
20260502031803 45 0 0.0 0.0 0.00 0.03 0.00 97 1017.2
20260502030903 46 0 0.0 0.0 0.00 0.03 0.00 97 1017.3
20260502030003 46 0 0.0 0.0 0.00 0.03 0.00 97 1017.3
20260502025403 46 0 0.0 0.0 0.00 0.03 0.00 97 1017.3
20260502024503 46 0 0.0 0.0 0.00 0.03 0.00 97 1017.2
20260502023603 46 0 0.0 0.0 0.00 0.03 0.00 97 1017.3
20260502022703 46 0 0.0 0.0 0.00 0.03 0.00 97 1017.4
20260502021803 47 0 0.0 0.0 0.00 0.03 0.00 97 1017.5
20260502020903 47 0 0.0 0.0 0.00 0.03 0.00 97 1017.6
20260502020003 47 0 0.0 0.0 0.00 0.03 0.00 97 1017.7
20260502015403 47 0 0.0 0.0 0.00 0.03 0.00 97 1017.8
20260502014503 47 0 0.0 0.0 0.00 0.03 0.00 97 1017.9
20260502013603 47 0 0.0 0.0 0.00 0.03 0.00 96 1017.9
20260502012703 46 0 0.0 0.0 0.00 0.03 0.00 96 1018.0
20260502011803 46 0 0.0 0.0 0.00 0.03 0.00 96 1018.1
20260502011117 47 0 0.0 0.0 0.00 0.03 0.00 96 1018.1
20260502010003 47 0 0.0 0.0 0.00 0.03 0.00 96 1018.2
20260502005403 47 0 0.0 0.0 0.00 0.03 0.00 96 1018.2
20260502004503 48 0 0.0 0.0 0.00 0.03 0.00 96 1018.3
20260502003603 48 0 0.0 0.0 0.00 0.03 0.00 96 1018.3
20260502002703 48 0 0.0 0.0 0.00 0.03 0.00 96 1018.3
20260502001803 48 0 0.0 0.0 0.00 0.03 0.00 96 1018.4
20260502001117 48 0 0.0 0.0 0.00 0.03 0.00 96 1018.4
20260502000218 48 0 0.0 0.0 0.00 0.03 0.00 96 1018.4
20260501235618 48 0 0.0 0.0 0.00 0.03 0.00 96 1018.4
20260501234503 48 0 0.0 0.0 0.00 0.03 0.00 96 1018.4
20260501233603 49 0 0.0 0.0 0.00 0.03 0.00 96 1018.5
20260501232703 49 0 0.0 0.0 0.00 0.03 0.00 96 1018.5
20260501232017 49 0 0.0 0.0 0.00 0.03 0.00 96 1018.5
20260501230903 49 0 0.0 0.0 0.00 0.03 0.00 95 1018.5
20260501230003 49 0 0.0 0.0 0.00 0.03 0.00 95 1018.6
20260501225403 49 0 0.0 0.0 0.00 0.03 0.03 95 1018.6
20260501224503 49 0 0.0 0.0 0.00 0.03 0.03 95 1018.5
20260501223603 50 0 0.0 0.0 0.00 0.03 0.03 95 1018.5
20260501222917 50 0 0.0 0.0 0.00 0.03 0.03 95 1018.6
20260501221803 51 0 0.0 0.0 0.00 0.03 0.03 95 1018.8